Weather in Novoye

Russia / Yaroslavl Oblast     56°36′06″N   38°37′43″E
temp.,
°C
wind,
m/s
gust,
m/s
humid.,
%
clouds,
%
prec.,
mm/h
press.,
hPa
HPBL,
m
19 april, mon
mon1900:00+6ene51182100 0.0 1024597
03:00+5ene4990100 0.2 1025508
06:00+4ene51086100 0.0 1025515
09:00+5ene61072100 0.0 1025618
12:00+8ene6859100 0.0 10251039
15:00+8ene6855100 0.0 10251205
18:00+7ene5957100 0.0 10251398
21:00+5e5115490 0.0 1026871
20 april, tue
tue2000:00+3e51258100 0.0 1026722
03:00+2e5116099 0.0 1025641
06:00+1e5126489 0.0 1024528
09:00+3e61161100 0.0 1024647
12:00+3e61184100 0.2 1023870
15:00+2e41396100 2.5 1022711
18:00+4e51494100 2.6 10191152
21:00+3e61597100 4.1 10171015
21 april, wed
wed2100:00+4e71583100 0.3 1012987
03:00+1e71897100 4.3 1008853
06:000e71697100 5.6 1004860
09:00+2e61598100 7.4 1000823
12:00+4se5998100 4.5 998896
15:00+3sw61198100 5.9 1001808
18:00+2sw61194100 0.7 1006955
21:00+3ssw51192100 0.8 10091011
22 april, thu
thu2200:00+3s5129693 0.0 1011557
03:00+3ssw4109486 0.1 1011725
06:00+2ssw4119699 0.1 1012528
09:00+3s51296100 1.5 1013720
12:00+4ssw4996100 0.0 1015507
15:00+8sw4886100 0.0 1015984
18:00+8ssw378693 0.0 1016426
21:00+5s239125 0.0 101736
23 april, fri
fri2300:00+4s24955 0.0 101762
03:00+4s259615 0.0 101791
06:00+4sse399660 0.0 1017181
09:00+10s410805 0.0 1017440
12:00+14s610626 0.0 10161666
15:00+15s610585 0.4 10151740
18:00+13sse5116246 0.1 1014717
21:00+10sse5147842 0.1 1013376